Weather in Baevo

Russia / Altai Krai     53°16′00″N   80°46′27″E
temp.,
°C
wind,
m/s
gust,
m/s
humid.,
%
clouds,
%
prec.,
mm/h
press.,
hPa
HPBL,
m
7 may, fri
fri701:00+18nw61647100 0.0 1003337
04:00+16nw4962100 0.0 1006321
07:00+14wnw5956100 0.0 1009340
10:00+15nw5855100 0.0 1012608
13:00+18nw783479 0.0 10141578
16:00+19nw6830100 0.0 10151905
19:00+18wnw6734100 0.0 10161877
22:00+12nnw374861 0.0 1019124
8 may, sat
sat801:00+10nw34485 0.0 102049
04:00+9nw345418 0.0 102154
07:00+8nnw23570 0.0 102246
10:00+15wnw22370 0.0 1022549
13:00+18w34290 0.0 10211340
16:00+21wnw45290 0.0 10191745
19:00+20nw35310 0.0 10191852
22:00+16wsw22410 0.0 101911
9 may, sun
sun901:00+13w22481 0.0 101911
04:00+12w22515 0.0 101810
07:00+12wnw11535 0.0 101810
10:00+18n22395 0.0 1018491
13:00+21n33356 0.0 10171867
16:00+22ne543420 0.0 10162339
19:00+20ne5437100 0.0 10161809
22:00+14ene7124599 0.0 1017445
10 may, mon
mon1001:00+11ene613466 0.0 1017463
04:00+9ene7145080 0.0 1016501
07:00+8ene71454100 0.0 1016606
10:00+11ene81143100 0.0 1015816
13:00+14ene7932100 0.0 10141375
16:00+15ene7831100 0.0 10121846
19:00+15nne7937100 0.0 10111735
22:00+10nne495396 0.0 1012167
11 may, tue
tue1101:00+10nne6135350 0.0 1012435
04:00+8nne6126246 0.0 1013391
07:00+7nne5117192 0.0 1014401
10:00+11nne6854100 0.0 1014761
13:00+15nne5639100 0.0 10141689
16:00+16nne6735100 0.0 10142173
19:00+15n5740100 0.0 10141609
22:00+11n4851100 0.0 1015172